| time (UTC) | temp F | wind direction | speed knots | gust knots | rain 1hr in | rain 24hr in | rain mn in | humidity % | barometer mb |
| 20260506230717 | 52 | 231 | 1.7 | 5.2 | 0.00 | 0.00 | 0.00 | 38 | 980.3 |
| 20260506230218 | 52 | 229 | 1.7 | 5.2 | 0.00 | 0.00 | 0.00 | 39 | 980.1 |
| 20260506225503 | 52 | 228 | 1.7 | 6.1 | 0.00 | 0.00 | 0.00 | 39 | 980.3 |
| 20260506225003 | 52 | 229 | 1.7 | 4.3 | 0.00 | 0.00 | 0.00 | 38 | 980.3 |
| 20260506224503 | 53 | 202 | 0.9 | 4.3 | 0.00 | 0.00 | 0.00 | 38 | 980.4 |
| 20260506224003 | 53 | 140 | 0.9 | 2.6 | 0.00 | 0.00 | 0.00 | 40 | 980.5 |
| 20260506223503 | 53 | 222 | 1.7 | 4.3 | 0.00 | 0.00 | 0.00 | 40 | 980.3 |
| 20260506223003 | 53 | 233 | 1.7 | 5.2 | 0.00 | 0.00 | 0.00 | 38 | 980.3 |
| 20260506222503 | 53 | 240 | 1.7 | 5.2 | 0.00 | 0.00 | 0.00 | 38 | 980.5 |
| 20260506222003 | 53 | 241 | 2.6 | 7.0 | 0.00 | 0.00 | 0.00 | 38 | 980.3 |
| 20260506221503 | 53 | 238 | 3.5 | 10.4 | 0.00 | 0.00 | 0.00 | 37 | 980.4 |
| 20260506221218 | 53 | 228 | 2.6 | 10.4 | 0.00 | 0.00 | 0.00 | 39 | 980.5 |
| 20260506220503 | 53 | 222 | 0.9 | 7.0 | 0.00 | 0.00 | 0.00 | 40 | 980.4 |
| 20260506220003 | 53 | 223 | 1.7 | 7.0 | 0.00 | 0.00 | 0.00 | 39 | 980.6 |
| 20260506215503 | 53 | 193 | 0.9 | 3.5 | 0.00 | 0.00 | 0.00 | 40 | 980.5 |
| 20260506215217 | 53 | 197 | 0.9 | 4.3 | 0.00 | 0.00 | 0.00 | 38 | 980.4 |
| 20260506214716 | 53 | 87 | 0.9 | 4.3 | 0.00 | 0.00 | 0.00 | 40 | 980.5 |
| 20260506214217 | 53 | 119 | 0.9 | 5.2 | 0.00 | 0.00 | 0.00 | 40 | 980.4 |
| 20260506213503 | 53 | 223 | 1.7 | 5.2 | 0.00 | 0.00 | 0.00 | 40 | 980.4 |
| 20260506213003 | 53 | 195 | 1.7 | 5.2 | 0.00 | 0.00 | 0.00 | 39 | 980.2 |
| 20260506212503 | 53 | 87 | 0.9 | 4.3 | 0.00 | 0.00 | 0.00 | 40 | 980.3 |
| 20260506212217 | 53 | 136 | 0.9 | 4.3 | 0.00 | 0.00 | 0.00 | 39 | 980.4 |
| 20260506211503 | 53 | 210 | 1.7 | 4.3 | 0.00 | 0.00 | 0.00 | 40 | 980.1 |
| 20260506211217 | 53 | 230 | 2.6 | 9.6 | 0.00 | 0.00 | 0.00 | 39 | 980.4 |
| 20260506210503 | 52 | 226 | 2.6 | 9.6 | 0.00 | 0.00 | 0.00 | 39 | 980.4 |
| 20260506210003 | 53 | 226 | 3.5 | 9.6 | 0.00 | 0.00 | 0.00 | 38 | 980.1 |
| 20260506205716 | 52 | 231 | 4.3 | 9.6 | 0.00 | 0.00 | 0.00 | 39 | 980.2 |
| 20260506205003 | 53 | 232 | 4.3 | 9.6 | 0.00 | 0.00 | 0.00 | 38 | 980.5 |
| 20260506204503 | 53 | 235 | 3.5 | 9.6 | 0.00 | 0.00 | 0.00 | 39 | 980.2 |
| 20260506204003 | 52 | 235 | 3.5 | 7.8 | 0.00 | 0.00 | 0.00 | 40 | 980.4 |
| 20260506203503 | 52 | 235 | 3.5 | 9.6 | 0.00 | 0.00 | 0.00 | 38 | 980.2 |
| 20260506203003 | 53 | 234 | 2.6 | 9.6 | 0.00 | 0.00 | 0.00 | 38 | 980.3 |
| 20260506202503 | 53 | 231 | 2.6 | 7.8 | 0.00 | 0.00 | 0.00 | 38 | 980.2 |
| 20260506202003 | 53 | 232 | 2.6 | 7.8 | 0.00 | 0.00 | 0.00 | 41 | 980.5 |
| 20260506201503 | 53 | 210 | 1.7 | 5.2 | 0.00 | 0.00 | 0.00 | 39 | 980.3 |
| 20260506201003 | 52 | 156 | 1.7 | 5.2 | 0.00 | 0.00 | 0.00 | 40 | 980.4 |
| 20260506200503 | 53 | 150 | 1.7 | 4.3 | 0.00 | 0.00 | 0.00 | 37 | 980.3 |
| 20260506200003 | 53 | 44 | 1.7 | 4.3 | 0.00 | 0.00 | 0.00 | 39 | 980.4 |
| 20260506195503 | 53 | 20 | 2.6 | 4.3 | 0.00 | 0.00 | 0.00 | 45 | 980.7 |
| 20260506195003 | 52 | 217 | 2.6 | 4.3 | 0.00 | 0.00 | 0.00 | 39 | 980.8 |
| 20260506194503 | 52 | 236 | 2.6 | 4.3 | 0.00 | 0.00 | 0.00 | 40 | 980.8 |
| 20260506194003 | 52 | 42 | 1.7 | 5.2 | 0.00 | 0.00 | 0.00 | 41 | 980.8 |
| 20260506193503 | 53 | 38 | 0.9 | 5.2 | 0.00 | 0.00 | 0.00 | 41 | 980.6 |
| 20260506193217 | 52 | 32 | 1.7 | 5.2 | 0.00 | 0.00 | 0.00 | 43 | 980.7 |
| 20260506192503 | 52 | 100 | 1.7 | 4.3 | 0.00 | 0.00 | 0.00 | 40 | 980.6 |
| 20260506192003 | 52 | 195 | 1.7 | 5.2 | 0.00 | 0.00 | 0.00 | 41 | 980.9 |
| 20260506191503 | 52 | 219 | 1.7 | 5.2 | 0.00 | 0.00 | 0.00 | 40 | 980.8 |
| 20260506191003 | 53 | 226 | 1.7 | 5.2 | 0.00 | 0.00 | 0.00 | 39 | 980.9 |
| 20260506190503 | 53 | 179 | 1.7 | 5.2 | 0.00 | 0.00 | 0.00 | 44 | 981.0 |
| 20260506190004 | 51 | 214 | 2.6 | 8.7 | 0.00 | 0.00 | 0.00 | 41 | 980.8 |
| 20260506185503 | 51 | 228 | 3.5 | 8.7 | 0.00 | 0.00 | 0.00 | 40 | 980.8 |
| 20260506185003 | 51 | 231 | 2.6 | 7.8 | 0.00 | 0.00 | 0.00 | 41 | 980.8 |
| 20260506184717 | 51 | 223 | 1.7 | 7.8 | 0.00 | 0.00 | 0.00 | 40 | 980.9 |
| 20260506184003 | 52 | 228 | 1.7 | 4.3 | 0.00 | 0.00 | 0.00 | 42 | 980.7 |
| 20260506183503 | 51 | 236 | 1.7 | 6.1 | 0.00 | 0.00 | 0.00 | 43 | 980.5 |
| 20260506183216 | 51 | 237 | 2.6 | 7.8 | 0.00 | 0.00 | 0.00 | 44 | 980.7 |
| 20260506182717 | 51 | 241 | 3.5 | 9.6 | 0.00 | 0.00 | 0.00 | 41 | 980.8 |
| 20260506182003 | 51 | 236 | 2.6 | 7.8 | 0.00 | 0.00 | 0.00 | 41 | 980.7 |
| 20260506181503 | 52 | 239 | 1.7 | 7.8 | 0.00 | 0.00 | 0.00 | 40 | 980.7 |
| 20260506181003 | 52 | 171 | 1.7 | 7.0 | 0.00 | 0.00 | 0.00 | 42 | 980.5 |
| 20260506180503 | 52 | 219 | 2.6 | 7.0 | 0.00 | 0.00 | 0.00 | 44 | 980.5 |
| 20260506180004 | 52 | 206 | 1.7 | 5.2 | 0.00 | 0.00 | 0.00 | 40 | 980.6 |
| 20260506175503 | 52 | 48 | 0.9 | 5.2 | 0.00 | 0.00 | 0.00 | 42 | 980.8 |
| 20260506175003 | 51 | 221 | 1.7 | 5.2 | 0.00 | 0.00 | 0.00 | 43 | 980.7 |
| 20260506174503 | 52 | 195 | 1.7 | 5.2 | 0.00 | 0.00 | 0.00 | 40 | 980.8 |
| 20260506174003 | 52 | 214 | 1.7 | 5.2 | 0.00 | 0.00 | 0.00 | 42 | 980.8 |
| 20260506173503 | 51 | 255 | 1.7 | 5.2 | 0.00 | 0.00 | 0.00 | 42 | 981.0 |
| 20260506173003 | 51 | 229 | 2.6 | 7.0 | 0.00 | 0.00 | 0.00 | 44 | 981.3 |
| 20260506172503 | 50 | 222 | 3.5 | 12.2 | 0.00 | 0.00 | 0.00 | 44 | 981.2 |
| 20260506172003 | 50 | 224 | 1.7 | 12.2 | 0.00 | 0.00 | 0.00 | 45 | 981.2 |
| 20260506171717 | 50 | 230 | 1.7 | 12.2 | 0.00 | 0.00 | 0.00 | 46 | 981.3 |
| 20260506171003 | 50 | 234 | 2.6 | 7.0 | 0.00 | 0.00 | 0.00 | 46 | 981.4 |
| 20260506170503 | 50 | 225 | 2.6 | 7.0 | 0.00 | 0.00 | 0.00 | 45 | 980.9 |
| 20260506170218 | 51 | 198 | 1.7 | 5.2 | 0.00 | 0.00 | 0.00 | 45 | 980.9 |
| 20260506165717 | 51 | 193 | 2.6 | 5.2 | 0.00 | 0.00 | 0.00 | 44 | 980.9 |
| 20260506165003 | 51 | 289 | 1.7 | 7.0 | 0.00 | 0.00 | 0.00 | 47 | 981.2 |
| 20260506164717 | 50 | 225 | 2.6 | 7.8 | 0.00 | 0.00 | 0.00 | 46 | 981.1 |
| 20260506164218 | 50 | 217 | 1.7 | 7.8 | 0.00 | 0.00 | 0.00 | 45 | 981.3 |
| 20260506163503 | 50 | 231 | 2.6 | 11.3 | 0.00 | 0.00 | 0.00 | 46 | 981.1 |
| 20260506163003 | 50 | 223 | 2.6 | 11.3 | 0.00 | 0.00 | 0.00 | 43 | 981.0 |
| 20260506162503 | 50 | 235 | 1.7 | 7.8 | 0.00 | 0.00 | 0.00 | 45 | 981.0 |
| 20260506162003 | 50 | 239 | 2.6 | 7.8 | 0.00 | 0.00 | 0.00 | 47 | 980.9 |
| 20260506161503 | 50 | 232 | 2.6 | 7.8 | 0.00 | 0.00 | 0.00 | 48 | 980.9 |
| 20260506161003 | 51 | 177 | 1.7 | 4.3 | 0.00 | 0.00 | 0.00 | 46 | 980.9 |
| 20260506160503 | 51 | 148 | 1.7 | 4.3 | 0.00 | 0.00 | 0.00 | 46 | 981.0 |
| 20260506160003 | 51 | 142 | 1.7 | 7.0 | 0.00 | 0.00 | 0.00 | 46 | 981.2 |
| 20260506155503 | 50 | 275 | 1.7 | 7.0 | 0.00 | 0.00 | 0.00 | 47 | 981.2 |
| 20260506155003 | 50 | 262 | 2.6 | 7.0 | 0.00 | 0.00 | 0.00 | 52 | 980.9 |
| 20260506154503 | 50 | 238 | 2.6 | 7.8 | 0.00 | 0.00 | 0.00 | 46 | 980.9 |
| 20260506154003 | 51 | 279 | 2.6 | 7.8 | 0.00 | 0.00 | 0.00 | 48 | 980.6 |
| 20260506153503 | 51 | 24 | 2.6 | 7.0 | 0.00 | 0.00 | 0.00 | 47 | 980.8 |
| 20260506153003 | 52 | 71 | 1.7 | 7.0 | 0.00 | 0.00 | 0.00 | 46 | 980.8 |
| 20260506152718 | 52 | 136 | 1.7 | 7.8 | 0.00 | 0.00 | 0.00 | 46 | 980.5 |
| 20260506152003 | 52 | 68 | 2.6 | 7.8 | 0.00 | 0.00 | 0.00 | 47 | 980.6 |
| 20260506151504 | 53 | 111 | 1.7 | 6.1 | 0.00 | 0.00 | 0.00 | 45 | 980.6 |
| 20260506151003 | 52 | 168 | 1.7 | 6.1 | 0.00 | 0.00 | 0.00 | 47 | 980.6 |
| 20260506150504 | 51 | 215 | 2.6 | 11.3 | 0.00 | 0.00 | 0.00 | 45 | 980.7 |
| 20260506150004 | 51 | 227 | 2.6 | 11.3 | 0.00 | 0.00 | 0.00 | 43 | 980.7 |
| 20260506145503 | 51 | 229 | 2.6 | 9.6 | 0.00 | 0.00 | 0.00 | 45 | 980.7 |
| 20260506145003 | 51 | 231 | 2.6 | 9.6 | 0.00 | 0.00 | 0.00 | 46 | 980.4 |
| 20260506144503 | 51 | 227 | 2.6 | 5.2 | 0.00 | 0.00 | 0.00 | 47 | 980.4 |
| 20260506144217 | 50 | 222 | 2.6 | 5.2 | 0.00 | 0.00 | 0.00 | 50 | 980.4 |
| 20260506143503 | 49 | 238 | 2.6 | 7.8 | 0.00 | 0.00 | 0.00 | 51 | 980.4 |
| 20260506143003 | 50 | 241 | 2.6 | 7.8 | 0.00 | 0.00 | 0.00 | 49 | 980.1 |
| 20260506142503 | 51 | 157 | 1.7 | 6.1 | 0.00 | 0.00 | 0.00 | 50 | 980.2 |
| 20260506142003 | 51 | 42 | 1.7 | 6.1 | 0.00 | 0.00 | 0.00 | 52 | 980.3 |
| 20260506141503 | 50 | 37 | 1.7 | 6.1 | 0.00 | 0.00 | 0.00 | 54 | 980.1 |
| 20260506141003 | 51 | 53 | 2.6 | 8.7 | 0.00 | 0.00 | 0.00 | 51 | 980.0 |
| 20260506140503 | 51 | 51 | 2.6 | 8.7 | 0.00 | 0.00 | 0.00 | 53 | 979.9 |
| 20260506140217 | 51 | 45 | 2.6 | 9.6 | 0.00 | 0.00 | 0.00 | 55 | 980.0 |
| 20260506135503 | 51 | 55 | 2.6 | 9.6 | 0.00 | 0.00 | 0.00 | 54 | 979.9 |
| 20260506135216 | 52 | 83 | 1.7 | 5.2 | 0.00 | 0.00 | 0.00 | 54 | 979.7 |
| 20260506134718 | 50 | 103 | 1.7 | 5.2 | 0.00 | 0.00 | 0.00 | 55 | 979.8 |
| 20260506134003 | 49 | 222 | 1.7 | 5.2 | 0.00 | 0.00 | 0.00 | 55 | 979.7 |
| 20260506133503 | 50 | 225 | 1.7 | 5.2 | 0.00 | 0.00 | 0.00 | 53 | 979.9 |
| 20260506133216 | 50 | 221 | 1.7 | 5.2 | 0.00 | 0.00 | 0.00 | 53 | 979.9 |
| 20260506132503 | 49 | 224 | 3.5 | 9.6 | 0.00 | 0.00 | 0.00 | 53 | 979.7 |
| 20260506132003 | 49 | 207 | 2.6 | 7.8 | 0.00 | 0.00 | 0.00 | 51 | 979.5 |
| 20260506131503 | 50 | 167 | 1.7 | 6.1 | 0.00 | 0.00 | 0.00 | 49 | 979.6 |
| 20260506131003 | 50 | 212 | 1.7 | 6.1 | 0.00 | 0.00 | 0.00 | 49 | 979.4 |
| 20260506130717 | 50 | 238 | 1.7 | 6.1 | 0.00 | 0.00 | 0.00 | 50 | 979.4 |
| 20260506130003 | 49 | 238 | 2.6 | 6.1 | 0.00 | 0.00 | 0.00 | 52 | 979.6 |
| 20260506125503 | 48 | 234 | 2.6 | 6.1 | 0.00 | 0.00 | 0.00 | 50 | 979.1 |
| 20260506125216 | 48 | 232 | 2.6 | 6.1 | 0.00 | 0.00 | 0.00 | 51 | 979.0 |
| 20260506124717 | 47 | 239 | 2.6 | 6.1 | 0.00 | 0.00 | 0.00 | 53 | 979.1 |
| 20260506124003 | 47 | 224 | 1.7 | 7.8 | 0.00 | 0.00 | 0.00 | 53 | 979.3 |
| 20260506123717 | 47 | 230 | 1.7 | 7.8 | 0.00 | 0.00 | 0.00 | 54 | 979.0 |
| 20260506123003 | 47 | 227 | 0.9 | 4.3 | 0.00 | 0.00 | 0.00 | 53 | 979.1 |
| 20260506122503 | 47 | 221 | 0.9 | 3.5 | 0.00 | 0.00 | 0.00 | 54 | 978.7 |
| 20260506122003 | 46 | 239 | 0.9 | 3.5 | 0.00 | 0.00 | 0.00 | 55 | 978.8 |
| 20260506121503 | 45 | 227 | 1.7 | 3.5 | 0.00 | 0.00 | 0.00 | 56 | 978.7 |
| 20260506121003 | 45 | 212 | 0.9 | 3.5 | 0.00 | 0.00 | 0.00 | 55 | 978.8 |
| 20260506120503 | 45 | 164 | 0.9 | 2.6 | 0.00 | 0.00 | 0.00 | 57 | 978.6 |
| 20260506120003 | 44 | 220 | 0.9 | 3.5 | 0.00 | 0.00 | 0.00 | 59 | 978.8 |
| 20260506115503 | 44 | 235 | 0.9 | 3.5 | 0.00 | 0.00 | 0.00 | 59 | 978.5 |
| 20260506115003 | 44 | 241 | 0.9 | 4.3 | 0.00 | 0.00 | 0.00 | 59 | 978.6 |
| 20260506114503 | 44 | 229 | 0.9 | 4.3 | 0.00 | 0.00 | 0.00 | 59 | 978.6 |
| 20260506114003 | 44 | 235 | 0.9 | 3.5 | 0.00 | 0.00 | 0.00 | 58 | 978.8 |
| 20260506113503 | 44 | 251 | 0.9 | 3.5 | 0.00 | 0.00 | 0.00 | 59 | 978.4 |
| 20260506113003 | 43 | 270 | 0.9 | 2.6 | 0.00 | 0.00 | 0.00 | 59 | 978.4 |
| 20260506112503 | 43 | 22 | 0.0 | 1.7 | 0.00 | 0.00 | 0.00 | 60 | 978.2 |
| 20260506112003 | 42 | 287 | 0.0 | 1.7 | 0.00 | 0.00 | 0.00 | 60 | 978.2 |
| 20260506111717 | 42 | 216 | 0.0 | 1.7 | 0.00 | 0.00 | 0.00 | 61 | 978.1 |
| 20260506111003 | 42 | 261 | 0.0 | 1.7 | 0.00 | 0.00 | 0.00 | 60 | 978.2 |
| 20260506110503 | 42 | 290 | 0.0 | 1.7 | 0.00 | 0.00 | 0.00 | 60 | 978.2 |
| 20260506110003 | 42 | 308 | 0.0 | 1.7 | 0.00 | 0.00 | 0.00 | 60 | 978.2 |
| 20260506105503 | 42 | 315 | 0.0 | 1.7 | 0.00 | 0.00 | 0.00 | 60 | 978.0 |
| 20260506105003 | 43 | 334 | 0.0 | 1.7 | 0.00 | 0.00 | 0.00 | 59 | 977.9 |
| 20260506104503 | 43 | 14 | 0.0 | 1.7 | 0.00 | 0.00 | 0.00 | 58 | 977.9 |
| 20260506104003 | 43 | 325 | 0.0 | 1.7 | 0.00 | 0.00 | 0.00 | 58 | 977.8 |
| 20260506103503 | 43 | 257 | 0.9 | 1.7 | 0.00 | 0.00 | 0.00 | 58 | 977.8 |
| 20260506103217 | 43 | 262 | 0.0 | 1.7 | 0.00 | 0.00 | 0.00 | 58 | 977.6 |
| 20260506102503 | 44 | 2 | 0.0 | 2.6 | 0.00 | 0.00 | 0.00 | 57 | 977.4 |
| 20260506102003 | 44 | 50 | 0.9 | 2.6 | 0.00 | 0.00 | 0.00 | 57 | 977.4 |
| 20260506101718 | 44 | 55 | 0.9 | 1.7 | 0.00 | 0.00 | 0.00 | 56 | 977.7 |
| 20260506101003 | 44 | 30 | 0.0 | 1.7 | 0.00 | 0.00 | 0.00 | 56 | 977.9 |
| 20260506100503 | 45 | 331 | 0.0 | 1.7 | 0.00 | 0.00 | 0.00 | 56 | 977.5 |
| 20260506100004 | 45 | 346 | 0.9 | 3.5 | 0.00 | 0.00 | 0.00 | 56 | 977.6 |
| 20260506095718 | 45 | 335 | 0.9 | 3.5 | 0.00 | 0.00 | 0.00 | 56 | 977.7 |
| 20260506095217 | 45 | 282 | 0.9 | 3.5 | 0.00 | 0.00 | 0.00 | 56 | 977.4 |
| 20260506094503 | 45 | 286 | 0.9 | 2.6 | 0.00 | 0.00 | 0.00 | 56 | 977.1 |
| 20260506094003 | 45 | 39 | 0.9 | 3.5 | 0.00 | 0.00 | 0.00 | 55 | 977.4 |
| 20260506093718 | 45 | 26 | 0.9 | 3.5 | 0.00 | 0.00 | 0.00 | 55 | 977.2 |
| 20260506093217 | 45 | 21 | 0.9 | 3.5 | 0.00 | 0.00 | 0.00 | 55 | 977.0 |
| 20260506092503 | 45 | 84 | 0.9 | 1.7 | 0.00 | 0.00 | 0.00 | 55 | 976.9 |
| 20260506092217 | 45 | 71 | 0.9 | 1.7 | 0.00 | 0.00 | 0.00 | 55 | 976.8 |
| 20260506091503 | 45 | 85 | 0.0 | 1.7 | 0.00 | 0.00 | 0.00 | 55 | 976.9 |
| 20260506091003 | 45 | 76 | 0.9 | 2.6 | 0.00 | 0.00 | 0.00 | 55 | 977.2 |
| 20260506090503 | 45 | 57 | 0.9 | 2.6 | 0.00 | 0.00 | 0.00 | 54 | 977.0 |
| 20260506090004 | 45 | 239 | 0.9 | 2.6 | 0.00 | 0.00 | 0.00 | 55 | 977.1 |
| 20260506085503 | 45 | 224 | 0.9 | 2.6 | 0.00 | 0.00 | 0.00 | 55 | 976.8 |
| 20260506085217 | 45 | 63 | 0.9 | 2.6 | 0.00 | 0.00 | 0.00 | 54 | 976.8 |
| 20260506084503 | 45 | 27 | 0.9 | 2.6 | 0.00 | 0.00 | 0.00 | 55 | 976.7 |
| 20260506084003 | 45 | 44 | 0.9 | 2.6 | 0.00 | 0.00 | 0.00 | 54 | 976.9 |
| 20260506083503 | 46 | 61 | 0.9 | 3.5 | 0.00 | 0.00 | 0.00 | 54 | 977.0 |
| 20260506083003 | 46 | 298 | 0.9 | 4.3 | 0.00 | 0.00 | 0.00 | 54 | 976.9 |
| 20260506082717 | 46 | 344 | 0.9 | 4.3 | 0.00 | 0.00 | 0.00 | 54 | 976.9 |
| 20260506082003 | 46 | 63 | 0.9 | 2.6 | 0.00 | 0.00 | 0.00 | 54 | 976.8 |
| 20260506081718 | 46 | 64 | 0.9 | 2.6 | 0.00 | 0.00 | 0.00 | 54 | 976.8 |
| 20260506081003 | 46 | 64 | 0.9 | 2.6 | 0.00 | 0.00 | 0.00 | 54 | 976.8 |
| 20260506080503 | 46 | 34 | 0.9 | 3.5 | 0.00 | 0.00 | 0.00 | 54 | 976.8 |
| 20260506073503 | 46 | 60 | 0.9 | 3.5 | 0.00 | 0.00 | 0.00 | 53 | 977.1 |
| 20260506073003 | 46 | 61 | 0.9 | 2.6 | 0.00 | 0.00 | 0.00 | 53 | 976.8 |
| 20260506072503 | 46 | 16 | 0.9 | 2.6 | 0.00 | 0.00 | 0.00 | 53 | 977.0 |
| 20260506072003 | 46 | 46 | 0.9 | 3.5 | 0.00 | 0.00 | 0.00 | 53 | 976.8 |
| 20260506071503 | 46 | 67 | 0.9 | 3.5 | 0.00 | 0.00 | 0.00 | 53 | 976.7 |
| 20260506071003 | 46 | 62 | 0.9 | 2.6 | 0.00 | 0.00 | 0.00 | 53 | 976.8 |
| 20260506070717 | 46 | 55 | 0.9 | 2.6 | 0.00 | 0.00 | 0.00 | 53 | 976.9 |
| 20260506062503 | 47 | 277 | 0.9 | 2.6 | 0.00 | 0.00 | 0.00 | 54 | 977.1 |
| 20260506062003 | 47 | 320 | 0.9 | 2.6 | 0.00 | 0.00 | 0.00 | 54 | 977.1 |
| 20260506061503 | 47 | 312 | 0.9 | 3.5 | 0.00 | 0.00 | 0.00 | 53 | 976.8 |
| 20260506061003 | 47 | 2 | 0.9 | 3.5 | 0.00 | 0.00 | 0.00 | 53 | 977.2 |
| 20260506060503 | 47 | 58 | 0.9 | 1.7 | 0.00 | 0.00 | 0.00 | 53 | 976.9 |
| 20260506051003 | 47 | 341 | 0.9 | 2.6 | 0.00 | 0.00 | 0.00 | 52 | 977.0 |
| 20260506050503 | 47 | 267 | 0.9 | 3.5 | 0.00 | 0.00 | 0.00 | 52 | 976.8 |
| 20260506045003 | 48 | 260 | 0.9 | 2.6 | 0.00 | 0.00 | 0.00 | 53 | 977.1 |
| 20260506044503 | 48 | 269 | 0.9 | 2.6 | 0.00 | 0.00 | 0.00 | 52 | 977.0 |
| 20260506044003 | 48 | 273 | 0.9 | 3.5 | 0.00 | 0.00 | 0.00 | 52 | 977.0 |
| 20260506043718 | 48 | 266 | 0.9 | 3.5 | 0.00 | 0.00 | 0.00 | 52 | 977.1 |
| 20260506043003 | 48 | 261 | 0.9 | 3.5 | 0.00 | 0.00 | 0.00 | 52 | 977.1 |
| 20260506042503 | 48 | 256 | 0.9 | 3.5 | 0.00 | 0.00 | 0.00 | 52 | 976.9 |
| 20260506042003 | 48 | 261 | 0.9 | 2.6 | 0.00 | 0.00 | 0.00 | 51 | 976.9 |
| 20260506041503 | 48 | 282 | 0.9 | 2.6 | 0.00 | 0.00 | 0.00 | 51 | 976.8 |
| 20260506041003 | 48 | 274 | 0.0 | 2.6 | 0.00 | 0.00 | 0.00 | 52 | 976.8 |
| 20260506040718 | 48 | 288 | 0.0 | 2.6 | 0.00 | 0.00 | 0.00 | 51 | 976.8 |
| 20260506040217 | 48 | 264 | 0.9 | 2.6 | 0.00 | 0.00 | 0.00 | 51 | 976.8 |
| 20260506035718 | 48 | 251 | 0.9 | 2.6 | 0.00 | 0.00 | 0.00 | 51 | 976.9 |
| 20260506035003 | 48 | 285 | 0.0 | 2.6 | 0.00 | 0.00 | 0.00 | 51 | 976.8 |
| 20260506034503 | 48 | 335 | 0.0 | 1.7 | 0.00 | 0.00 | 0.00 | 51 | 976.6 |
| 20260506034003 | 48 | 243 | 0.0 | 1.7 | 0.00 | 0.00 | 0.00 | 50 | 976.8 |
| 20260506033503 | 48 | 275 | 0.9 | 1.7 | 0.00 | 0.00 | 0.00 | 50 | 976.9 |
| 20260506033003 | 48 | 295 | 0.0 | 1.7 | 0.00 | 0.00 | 0.00 | 50 | 976.9 |
| 20260506032503 | 49 | 262 | 0.0 | 2.6 | 0.00 | 0.00 | 0.00 | 50 | 976.9 |
| 20260506032217 | 49 | 270 | 0.0 | 2.6 | 0.00 | 0.00 | 0.00 | 50 | 976.7 |
| 20260506031718 | 49 | 316 | 0.9 | 2.6 | 0.00 | 0.00 | 0.00 | 49 | 976.9 |
| 20260506031003 | 49 | 36 | 0.0 | 1.7 | 0.00 | 0.00 | 0.00 | 49 | 977.0 |
| 20260506030717 | 49 | 31 | 0.0 | 1.7 | 0.00 | 0.00 | 0.00 | 49 | 976.9 |
| 20260506030003 | 49 | 316 | 0.0 | 1.7 | 0.00 | 0.00 | 0.00 | 49 | 976.9 |
| 20260506025503 | 49 | 305 | 0.0 | 2.6 | 0.00 | 0.00 | 0.00 | 48 | 976.8 |
| 20260506025218 | 49 | 303 | 0.0 | 2.6 | 0.00 | 0.00 | 0.00 | 48 | 976.8 |
| 20260506024503 | 49 | 320 | 0.9 | 2.6 | 0.00 | 0.00 | 0.00 | 48 | 976.9 |
| 20260506024003 | 49 | 314 | 0.9 | 2.6 | 0.00 | 0.00 | 0.00 | 48 | 976.8 |
| 20260506023503 | 49 | 307 | 0.9 | 3.5 | 0.00 | 0.00 | 0.00 | 47 | 977.0 |
| 20260506023003 | 49 | 298 | 0.9 | 3.5 | 0.00 | 0.00 | 0.00 | 47 | 976.8 |
| 20260506022717 | 49 | 298 | 0.9 | 3.5 | 0.00 | 0.00 | 0.00 | 47 | 976.9 |
| 20260506022003 | 49 | 288 | 0.9 | 3.5 | 0.00 | 0.00 | 0.00 | 46 | 976.9 |
| 20260506021503 | 49 | 283 | 0.9 | 2.6 | 0.00 | 0.00 | 0.00 | 46 | 976.9 |
| 20260506021218 | 49 | 279 | 0.9 | 2.6 | 0.00 | 0.00 | 0.00 | 46 | 976.7 |
| 20260506020503 | 49 | 329 | 0.9 | 2.6 | 0.00 | 0.00 | 0.00 | 45 | 976.6 |
| 20260506020003 | 49 | 358 | 0.9 | 2.6 | 0.00 | 0.00 | 0.00 | 46 | 976.7 |
| 20260506015503 | 49 | 314 | 0.9 | 4.3 | 0.00 | 0.00 | 0.00 | 45 | 976.6 |
| 20260506015003 | 49 | 302 | 0.9 | 4.3 | 0.00 | 0.00 | 0.00 | 45 | 976.7 |
| 20260506014503 | 50 | 293 | 0.9 | 2.6 | 0.00 | 0.00 | 0.00 | 45 | 976.6 |
| 20260506014003 | 50 | 289 | 0.9 | 2.6 | 0.00 | 0.00 | 0.00 | 44 | 976.6 |
| 20260506013503 | 50 | 304 | 0.9 | 3.5 | 0.00 | 0.00 | 0.00 | 44 | 976.6 |
| 20260506013003 | 50 | 286 | 0.9 | 3.5 | 0.00 | 0.00 | 0.00 | 44 | 976.5 |
| 20260506012503 | 50 | 268 | 0.9 | 4.3 | 0.00 | 0.00 | 0.00 | 44 | 976.5 |
| 20260506012003 | 50 | 269 | 0.9 | 4.3 | 0.00 | 0.00 | 0.00 | 43 | 976.3 |
| 20260506011503 | 50 | 296 | 0.9 | 3.5 | 0.00 | 0.00 | 0.00 | 43 | 976.1 |
| 20260506011218 | 50 | 300 | 0.9 | 3.5 | 0.00 | 0.00 | 0.00 | 43 | 976.3 |
| 20260506010503 | 50 | 278 | 0.9 | 4.3 | 0.00 | 0.00 | 0.00 | 42 | 976.3 |
| 20260506010003 | 50 | 275 | 0.9 | 4.3 | 0.00 | 0.00 | 0.00 | 42 | 976.5 |
| 20260506005717 | 50 | 263 | 0.9 | 4.3 | 0.00 | 0.00 | 0.00 | 42 | 976.1 |
| 20260506005003 | 50 | 268 | 0.9 | 4.3 | 0.00 | 0.00 | 0.00 | 42 | 976.2 |
| 20260506004504 | 51 | 268 | 0.9 | 4.3 | 0.00 | 0.00 | 0.00 | 42 | 976.3 |
| 20260506004218 | 51 | 276 | 1.7 | 4.3 | 0.00 | 0.00 | 0.00 | 42 | 976.5 |
| 20260506003503 | 51 | 287 | 1.7 | 4.3 | 0.00 | 0.00 | 0.00 | 41 | 976.2 |
| 20260506003003 | 51 | 279 | 1.7 | 6.1 | 0.00 | 0.00 | 0.00 | 41 | 976.2 |
| 20260506002717 | 51 | 287 | 1.7 | 6.1 | 0.00 | 0.00 | 0.00 | 41 | 976.3 |
| 20260506002003 | 51 | 292 | 1.7 | 5.2 | 0.00 | 0.00 | 0.00 | 41 | 976.4 |
| 20260506001503 | 51 | 279 | 1.7 | 5.2 | 0.00 | 0.00 | 0.00 | 41 | 976.3 |
| 20260506001003 | 51 | 323 | 1.7 | 5.2 | 0.00 | 0.00 | 0.00 | 40 | 976.3 |
| 20260506000716 | 51 | 283 | 1.7 | 5.2 | 0.00 | 0.00 | 0.00 | 40 | 976.5 |
| 20260506000003 | 51 | 272 | 2.6 | 7.8 | 0.00 | 0.00 | 0.00 | 40 | 976.0 |
| 20260505235503 | 52 | 293 | 2.6 | 8.7 | 0.00 | 0.00 | 0.00 | 40 | 976.1 |
| 20260505235003 | 52 | 292 | 2.6 | 8.7 | 0.00 | 0.00 | 0.00 | 39 | 976.1 |
| 20260505234503 | 52 | 291 | 1.7 | 7.0 | 0.00 | 0.00 | 0.00 | 39 | 976.0 |
| 20260505234003 | 52 | 274 | 1.7 | 6.1 | 0.00 | 0.00 | 0.00 | 39 | 975.8 |
| 20260505233503 | 52 | 263 | 2.6 | 6.1 | 0.00 | 0.00 | 0.00 | 39 | 975.8 |
| 20260505233003 | 52 | 261 | 2.6 | 5.2 | 0.00 | 0.00 | 0.00 | 39 | 975.9 |
| 20260505232503 | 53 | 268 | 2.6 | 7.0 | 0.00 | 0.00 | 0.00 | 38 | 975.8 |
| 20260505232217 | 53 | 270 | 2.6 | 7.0 | 0.00 | 0.00 | 0.00 | 38 | 975.8 |
| 20260505231503 | 53 | 283 | 1.7 | 6.1 | 0.00 | 0.00 | 0.00 | 39 | 975.7 |
| 20260505231003 | 53 | 329 | 1.7 | 5.2 | 0.00 | 0.00 | 0.00 | 38 | 976.0 |